RYR2104 LCPH-EGBB

Flight info

Callsign RYR2104
Flight time N/A
Altitude 34000
Route GENOS DCT PEDER DCT LUTIG DCT RDS UL609 MES DCT AMISI DCT AGISA DCT BITLA DCT BONZI DCT RINAV DCT RETRA DCT INTIT DCT VELIT DCT PUL/N0440F360 DCT ROTAR DCT ROKIB DCT UNTAD DCT RESIA DCT ELMUR DCT RIPUS DCT DITON DCT HOC DCT LUL DCT RLP DCT ROTSI DCT KOTUN DCT NINAL DCT ABNUR DCT DIMAL DCT ALESO T420 HEMEL
Aircraft B738/M-SDE2E3FGHIRWXY/LB1

Departure

Time 2026-04-16 13:20
Airport Paphos International Airport (LCPH)

Arrival

Time N/A
Airport Birmingham Airport (EGBB)
Time Latitude Longitude Altitude Speed Heading
2026-04-16 13:03 34.71339 32.48740 45 ft 0 kts 155°
2026-04-16 13:11 34.71342 32.48738 44 ft 3 kts 154°
2026-04-16 13:11 34.71365 32.48723 45 ft 4 kts 142°
2026-04-16 13:11 34.71384 32.48700 45 ft 4 kts 124°
2026-04-16 13:11 34.71396 32.48672 42 ft 4 kts 100°
2026-04-16 13:12 34.71395 32.48643 41 ft 2 kts 66°
2026-04-16 13:12 34.71395 32.48641 45 ft 1 kts 65°
2026-04-16 13:14 34.71396 32.48644 45 ft 1 kts 65°
2026-04-16 13:14 34.71401 32.48659 43 ft 3 kts 65°
2026-04-16 13:14 34.71411 32.48686 44 ft 4 kts 65°
2026-04-16 13:15 34.71426 32.48724 45 ft 6 kts 65°
2026-04-16 13:15 34.71444 32.48772 45 ft 7 kts 65°
2026-04-16 13:15 34.71465 32.48829 44 ft 8 kts 65°
2026-04-16 13:15 34.71489 32.48894 42 ft 9 kts 65°
2026-04-16 13:16 34.71520 32.48962 45 ft 9 kts 45°
2026-04-16 13:16 34.71577 32.48993 46 ft 9 kts 19°
2026-04-16 13:16 34.71632 32.49025 44 ft 9 kts 50°
2026-04-16 13:16 34.71631 32.49095 47 ft 9 kts 110°
2026-04-16 13:17 34.71610 32.49162 46 ft 9 kts 110°
2026-04-16 13:17 34.71587 32.49239 45 ft 11 kts 109°
2026-04-16 13:17 34.71558 32.49338 43 ft 14 kts 109°
2026-04-16 13:17 34.71522 32.49458 41 ft 16 kts 109°
2026-04-16 13:18 34.71484 32.49586 41 ft 17 kts 112°
2026-04-16 13:18 34.71443 32.49707 42 ft 10 kts 112°
2026-04-16 13:18 34.71400 32.49771 43 ft 10 kts 156°
2026-04-16 13:18 34.71361 32.49819 44 ft 8 kts 95°
2026-04-16 13:19 34.71397 32.49856 43 ft 8 kts 339°
2026-04-16 13:19 34.71416 32.49803 43 ft 5 kts 289°
2026-04-16 13:19 34.71432 32.49755 42 ft 11 kts 291°
2026-04-16 13:19 34.71540 32.49390 40 ft 81 kts 290°
2026-04-16 13:20 34.71811 32.48503 45 ft 141 kts 290°
2026-04-16 13:20 34.72202 32.47232 306 ft 170 kts 290°
2026-04-16 13:20 34.72633 32.45853 969 ft 179 kts 291°
2026-04-16 13:20 34.73081 32.44372 1477 ft 198 kts 290°
2026-04-16 13:21 34.73562 32.42671 1747 ft 223 kts 286°
2026-04-16 13:21 34.73695 32.40726 1979 ft 243 kts 260°
2026-04-16 13:21 34.73067 32.38807 2473 ft 250 kts 235°
2026-04-16 13:21 34.71930 32.37095 2876 ft 268 kts 230°
2026-04-16 13:22 34.71082 32.35077 3546 ft 274 kts 261°
2026-04-16 13:22 34.70904 32.32754 3959 ft 277 kts 269°
2026-04-16 13:22 34.71223 32.30469 4011 ft 276 kts 290°
2026-04-16 13:22 34.71941 32.28289 3997 ft 278 kts 294°
2026-04-16 13:23 34.72713 32.26158 4218 ft 273 kts 295°
2026-04-16 13:23 34.73492 32.24042 4714 ft 276 kts 295°
2026-04-16 13:23 34.74286 32.21893 5444 ft 280 kts 295°
2026-04-16 13:23 34.75074 32.19758 6246 ft 281 kts 295°
2026-04-16 13:24 34.75876 32.17583 6977 ft 283 kts 295°
2026-04-16 13:24 34.76688 32.15384 7688 ft 287 kts 294°
2026-04-16 13:24 34.77499 32.13159 8415 ft 290 kts 295°
2026-04-16 13:24 34.78323 32.10908 9147 ft 293 kts 295°
2026-04-16 13:25 34.79156 32.08634 9863 ft 296 kts 295°
2026-04-16 13:25 34.80020 32.06271 10241 ft 313 kts 297°
2026-04-16 13:25 34.80940 32.03764 10394 ft 335 kts 297°
2026-04-16 13:25 34.81904 32.01136 10611 ft 354 kts 296°
2026-04-16 13:26 34.82920 31.98351 11044 ft 363 kts 295°
2026-04-16 13:26 34.83957 31.95496 11761 ft 365 kts 295°
2026-04-16 13:26 34.84976 31.92701 12393 ft 368 kts 295°
2026-04-16 13:26 34.86011 31.89839 13111 ft 369 kts 294°
2026-04-16 13:27 34.87050 31.86972 13777 ft 372 kts 294°
2026-04-16 13:27 34.88098 31.84077 14350 ft 375 kts 294°
2026-04-16 13:27 34.89151 31.81162 14988 ft 377 kts 293°
2026-04-16 13:27 34.90209 31.78235 15612 ft 379 kts 293°
2026-04-16 13:28 34.91275 31.75287 16208 ft 381 kts 293°
2026-04-16 13:28 34.92347 31.72320 16820 ft 383 kts 292°
2026-04-16 13:28 34.93423 31.69342 17452 ft 385 kts 292°
2026-04-16 13:28 34.94501 31.66351 18064 ft 387 kts 292°
2026-04-16 13:29 34.95589 31.63330 18521 ft 391 kts 292°
2026-04-16 13:29 34.96688 31.60279 19015 ft 393 kts 292°
2026-04-16 13:29 34.97788 31.57220 19547 ft 395 kts 292°
2026-04-16 13:29 34.98897 31.54132 19955 ft 400 kts 292°
2026-04-16 13:30 35.00018 31.51009 20426 ft 403 kts 292°